Weather History for Anchorage Merrill, AK

Change the Weather History Date:

Friday, May 31, 2013

  Actual Average Record
Temperature  
Mean Temperature 52 °F -  
Max Temperature 59 °F 60 °F 66 °F (2011)
Min Temperature 48 °F 44 °F 42 °F (1999)
Degree Days  
Heating Degree Days 12    
Growing Degree Days 2 (Base 50)    
Moisture  
Dew Point 44 °F    
Average Humidity 75    
Maximum Humidity 87    
Minimum Humidity 62    
Precipitation  
Precipitation 0.00 in - - ()
Sea Level Pressure  
Sea Level Pressure 30.09 in    
Wind  
Wind Speed 5 mph (WNW)    
Max Wind Speed 12 mph    
Max Gust Speed -    
Visibility 10 miles    
Events      
Averages and records for this station are not official NWS values.
T = Trace of Precipitation, MM = Missing Value Source: NWS Daily Summary

Daily Weather History Graph

Daily Weather History Graph

Search for Another Location

Airport:

Trip Planner

Search our weather history database for the weather conditions in past years. The results will help you decide how hot, cold, wet, or windy it might be!

Date:

Astronomy

May. 31, 2013 Rise Set
Actual Time 4:36 AM AKDT 11:19 PM AKDT
Civil Twilight 2:54 AM AKDT 1:04 AM AKDT
Nautical Twilight Sun does not rise Sun does not rise
Astronomical Twilight Sun does not rise Sun does not rise
Moon 2:21 AM AKDT (5/31) 1:47 PM AKDT (5/31)
Length of Visible Light 22h 09m
Length of Day
18h 42m
Waning Gibbous, 50% of the Moon is Illuminated
May 31
Waning Gibbous
Jun 8
New
Jun 16
First Quarter
Jun 23
Full
Jun 29
Last Quarter

Hourly Weather History & Observations

Time (AKDT) Temp. Dew Point Humidity Pressure Visibility Wind Dir Wind Speed Gust Speed Precip Events Conditions
12:53 AM 53.1 °F 43.0 °F 69% 30.03 in 10.0 mi SSW 4.6 mph - N/A   Partly Cloudy
1:53 AM 52.0 °F 45.0 °F 77% 30.04 in 10.0 mi Calm Calm - N/A   Partly Cloudy
2:53 AM 50.0 °F 44.1 °F 80% 30.04 in 10.0 mi Calm Calm - N/A   Partly Cloudy
3:53 AM 50.0 °F 44.1 °F 80% 30.06 in 10.0 mi Calm Calm - N/A   Scattered Clouds
4:53 AM 50.0 °F 44.1 °F 80% 30.06 in 10.0 mi Calm Calm - N/A   Scattered Clouds
5:53 AM 48.9 °F 42.1 °F 77% 30.06 in 10.0 mi Calm Calm - N/A   Scattered Clouds
6:53 AM 51.1 °F 43.0 °F 74% 30.07 in 10.0 mi NNE 3.5 mph - N/A   Scattered Clouds
7:53 AM 48.0 °F 44.1 °F 86% 30.09 in 10.0 mi WNW 9.2 mph - N/A   Clear
8:02 AM 48.2 °F 44.6 °F 87% 30.09 in 10.0 mi WNW 9.2 mph - N/A   Mostly Cloudy
8:49 AM 50.0 °F 44.6 °F 82% 30.10 in 10.0 mi West 8.1 mph - N/A   Mostly Cloudy
8:53 AM 48.9 °F 44.1 °F 83% 30.11 in 10.0 mi WNW 8.1 mph - N/A   Mostly Cloudy
9:53 AM 50.0 °F 44.1 °F 80% 30.12 in 10.0 mi West 8.1 mph - N/A   Mostly Cloudy
10:05 AM 51.8 °F 44.6 °F 76% 30.11 in 10.0 mi WNW 8.1 mph - N/A   Mostly Cloudy
11:53 AM 53.1 °F 43.0 °F 69% 30.11 in 10.0 mi West 8.1 mph - N/A   Unknown
12:53 PM 55.0 °F 43.0 °F 64% 30.11 in 10.0 mi West 9.2 mph - N/A   Scattered Clouds
1:53 PM 55.9 °F 43.0 °F 62% 30.10 in 10.0 mi West 9.2 mph - N/A   Scattered Clouds
2:53 PM 55.9 °F 43.0 °F 62% 30.09 in 10.0 mi West 8.1 mph - N/A   Clear
3:53 PM 55.9 °F 43.0 °F 62% 30.09 in 10.0 mi West 11.5 mph - N/A   Partly Cloudy
4:53 PM 57.0 °F 44.1 °F 62% 30.09 in 10.0 mi WNW 9.2 mph - N/A   Clear
5:53 PM 55.9 °F 45.0 °F 67% 30.09 in 10.0 mi WNW 9.2 mph - N/A   Clear
6:53 PM 57.0 °F 45.0 °F 64% 30.09 in 10.0 mi WNW 10.4 mph - N/A   Clear
7:53 PM 55.9 °F 46.0 °F 69% 30.10 in 10.0 mi WNW 8.1 mph - N/A   Clear
8:53 PM 53.1 °F 45.0 °F 74% 30.11 in 10.0 mi WNW 10.4 mph - N/A   Clear
9:53 PM 51.1 °F 46.0 °F 83% 30.12 in 10.0 mi West 9.2 mph - N/A   Clear
10:53 PM 50.0 °F 46.0 °F 86% 30.14 in 10.0 mi WNW 6.9 mph - N/A   Overcast
11:53 PM 51.1 °F 46.0 °F 83% 30.16 in 10.0 mi WSW 3.5 mph - N/A   Overcast